When you browse on this site, cookies collect data to enhance your experience and personalize the content and advertising you see.
Visit our Privacy Policy to learn more. By continuing to use the site, you agree to this use of cookies and data.
  • In United Kingdom
  • List of Countries
  • For 7 days
  • Water Temperature
  • Satellite Maps
  • Weather Map
  • Weather Widgets
  • user-avatar
    Login

    Hourly Weather Rezekne

    Today, 20 April, Saturday

    Time Temperature Precipitation Wind Pressure Humidity
    00:00 +9°C° 0 mm 1 mps 757 mmHg 58%
    01:00 +8°C° 0 mm 2 mps 756 mmHg 60%
    02:00 +7°C° 0 mm 2 mps 756 mmHg 61%
    03:00 +7°C° 0 mm 2 mps 756 mmHg 62%
    04:00 +7°C° 0 mm 2 mps 756 mmHg 64%
    05:00 +7°C° 0 mm 2 mps 755 mmHg 65%
    06:00 +8°C° 0 mm 2 mps 755 mmHg 64%
    07:00 +9°C° 0 mm 2 mps 755 mmHg 62%
    08:00 +9°C° 0 mm 2 mps 755 mmHg 61%
    09:00 +12°C° 0 mm 2 mps 755 mmHg 55%
    10:00 +13°C° 0 mm 2 mps 755 mmHg 50%
    11:00 +14°C° 0 mm 2 mps 755 mmHg 44%
    12:00 +13°C° 0 mm 3 mps 755 mmHg 44%
    13:00 +13°C° 0 mm 3 mps 754 mmHg 45%
    14:00 +13°C° 0 mm 3 mps 754 mmHg 45%
    15:00 +13°C° 0 mm 3 mps 754 mmHg 45%
    16:00 +14°C° 0 mm 2 mps 754 mmHg 45%
    17:00 +13°C° 0 mm 2 mps 754 mmHg 45%
    18:00 +12°C° 0 mm 2 mps 754 mmHg 49%
    19:00 +9°C° 0 mm 2 mps 754 mmHg 52%
    20:00 +8°C° 0 mm 2 mps 753 mmHg 55%
    21:00 +7°C° 0 mm 2 mps 753 mmHg 57%
    22:00 +6°C° 0 mm 2 mps 753 mmHg 59%
    23:00 +5°C° 0 mm 2 mps 753 mmHg 62%

    Tomorrow, 21 April, Sunday

    Time Temperature Precipitation Wind Pressure Humidity
    00:00 +5°C° 0 mm 2 mps 753 mmHg 64%
    01:00 +4°C° 0 mm 2 mps 753 mmHg 67%
    02:00 +5°C° 0 mm 1 mps 753 mmHg 70%
    03:00 +4°C° 0.1 mm 2 mps 753 mmHg 75%
    04:00 +3°C° 0.1 mm 2 mps 753 mmHg 81%
    05:00 +3°C° 0.1 mm 2 mps 753 mmHg 86%
    06:00 +4°C° 0 mm 2 mps 753 mmHg 81%
    07:00 +5°C° 0 mm 3 mps 753 mmHg 77%
    08:00 +7°C° 0 mm 3 mps 753 mmHg 72%
    09:00 +7°C° 0 mm 4 mps 753 mmHg 65%
    10:00 +10°C° 0 mm 4 mps 753 mmHg 57%
    11:00 +11°C° 0 mm 4 mps 753 mmHg 49%
    12:00 +12°C° 0 mm 4 mps 753 mmHg 47%
    13:00 +13°C° 0 mm 4 mps 753 mmHg 44%
    14:00 +14°C° 0 mm 4 mps 753 mmHg 42%
    15:00 +14°C° 0 mm 4 mps 753 mmHg 43%
    16:00 +14°C° 0 mm 4 mps 753 mmHg 45%
    17:00 +14°C° 0 mm 3 mps 753 mmHg 46%
    18:00 +12°C° 0 mm 3 mps 753 mmHg 53%
    19:00 +11°C° 0 mm 3 mps 753 mmHg 60%
    20:00 +9°C° 0 mm 2 mps 754 mmHg 68%
    21:00 +9°C° 0 mm 2 mps 754 mmHg 72%
    22:00 +8°C° 0 mm 2 mps 754 mmHg 77%
    23:00 +7°C° 0 mm 2 mps 755 mmHg 81%

    Day after tomorrow, 22 April, Monday

    Time Temperature Precipitation Wind Pressure Humidity
    00:00 +7°C° 0 mm 2 mps 755 mmHg 83%
    01:00 +7°C° 0 mm 2 mps 755 mmHg 84%
    02:00 +6°C° 0 mm 2 mps 755 mmHg 85%
    03:00 +6°C° 0 mm 2 mps 756 mmHg 84%
    04:00 +5°C° 0 mm 2 mps 756 mmHg 83%
    05:00 +5°C° 0 mm 2 mps 756 mmHg 82%
    06:00 +7°C° 0 mm 2 mps 757 mmHg 74%
    07:00 +9°C° 0 mm 2 mps 757 mmHg 66%
    08:00 +10°C° 0 mm 2 mps 757 mmHg 58%
    09:00 +12°C° 0 mm 3 mps 757 mmHg 51%
    10:00 +13°C° 0 mm 3 mps 757 mmHg 45%
    11:00 +15°C° 0 mm 4 mps 757 mmHg 39%
    12:00 +15°C° 0 mm 4 mps 757 mmHg 38%
    13:00 +17°C° 0 mm 4 mps 757 mmHg 37%
    14:00 +17°C° 0 mm 4 mps 757 mmHg 36%
    15:00 +17°C° 0 mm 4 mps 757 mmHg 37%
    16:00 +17°C° 0 mm 3 mps 757 mmHg 38%
    17:00 +16°C° 0 mm 3 mps 757 mmHg 39%
    18:00 +13°C° 0 mm 3 mps 757 mmHg 45%
    19:00 +13°C° 0 mm 2 mps 757 mmHg 52%
    20:00 +10°C° 0 mm 2 mps 757 mmHg 58%
    21:00 +9°C° 0 mm 2 mps 757 mmHg 60%
    22:00 +9°C° 0 mm 2 mps 758 mmHg 62%
    23:00 +8°C° 0 mm 2 mps 758 mmHg 64%

    23 April, Tuesday

    Time Temperature Precipitation Wind Pressure Humidity
    00:00 +7°C° 0 mm 2 mps 758 mmHg 66%
    01:00 +7°C° 0 mm 2 mps 758 mmHg 69%
    02:00 +6°C° 0 mm 2 mps 758 mmHg 71%
    03:00 +6°C° 0 mm 2 mps 759 mmHg 71%
    04:00 +6°C° 0 mm 2 mps 759 mmHg 71%
    05:00 +5°C° 0 mm 2 mps 759 mmHg 71%
    06:00 +7°C° 0 mm 2 mps 759 mmHg 65%
    07:00 +9°C° 0 mm 2 mps 759 mmHg 59%
    08:00 +12°C° 0 mm 2 mps 759 mmHg 54%
    09:00 +13°C° 0 mm 2 mps 759 mmHg 48%
    10:00 +14°C° 0 mm 3 mps 759 mmHg 43%
    11:00 +16°C° 0 mm 3 mps 759 mmHg 38%
    12:00 +16°C° 0 mm 3 mps 759 mmHg 37%
    13:00 +17°C° 0 mm 3 mps 759 mmHg 36%
    14:00 +17°C° 0 mm 3 mps 758 mmHg 36%
    15:00 +17°C° 0 mm 3 mps 758 mmHg 37%
    16:00 +17°C° 0 mm 3 mps 757 mmHg 38%
    17:00 +17°C° 0 mm 3 mps 757 mmHg 40%
    18:00 +14°C° 0 mm 3 mps 757 mmHg 46%
    19:00 +13°C° 0 mm 2 mps 757 mmHg 53%
    20:00 +10°C° 0 mm 2 mps 757 mmHg 59%
    21:00 +10°C° 0 mm 2 mps 757 mmHg 62%
    22:00 +9°C° 0 mm 2 mps 757 mmHg 64%
    23:00 +9°C° 0 mm 3 mps 758 mmHg 67%

    24 April, Wednesday

    Time Temperature Precipitation Wind Pressure Humidity
    00:00 +8°C° 0 mm 3 mps 758 mmHg 69%
    01:00 +8°C° 0 mm 3 mps 758 mmHg 70%
    02:00 +7°C° 0 mm 3 mps 758 mmHg 72%
    03:00 +7°C° 0 mm 3 mps 758 mmHg 73%
    04:00 +6°C° 0 mm 2 mps 758 mmHg 74%
    05:00 +6°C° 0 mm 2 mps 758 mmHg 75%
    06:00 +8°C° 0 mm 3 mps 758 mmHg 68%
    07:00 +10°C° 0 mm 4 mps 758 mmHg 60%
    08:00 +12°C° 0 mm 5 mps 758 mmHg 53%
    09:00 +13°C° 0 mm 5 mps 757 mmHg 50%
    10:00 +14°C° 0 mm 5 mps 757 mmHg 46%
    11:00 +15°C° 0 mm 6 mps 757 mmHg 42%
    12:00 +16°C° 0 mm 6 mps 757 mmHg 41%
    13:00 +16°C° 0 mm 6 mps 756 mmHg 40%
    14:00 +17°C° 0 mm 6 mps 756 mmHg 40%
    15:00 +17°C° 0 mm 6 mps 756 mmHg 41%
    16:00 +17°C° 0 mm 5 mps 755 mmHg 42%
    17:00 +17°C° 0 mm 5 mps 755 mmHg 43%
    18:00 +15°C° 0 mm 4 mps 755 mmHg 49%
    19:00 +13°C° 0 mm 4 mps 755 mmHg 55%
    20:00 +12°C° 0 mm 3 mps 755 mmHg 61%
    21:00 +11°C° 0 mm 3 mps 755 mmHg 63%
    22:00 +10°C° 0 mm 3 mps 755 mmHg 64%
    23:00 +10°C° 0 mm 3 mps 755 mmHg 66%

    25 April, Thursday

    Time Temperature Precipitation Wind Pressure Humidity
    00:00 +10°C° 0 mm 3 mps 755 mmHg 67%
    01:00 +9°C° 0 mm 3 mps 755 mmHg 68%
    02:00 +9°C° 0 mm 3 mps 755 mmHg 69%
    03:00 +8°C° 0 mm 4 mps 755 mmHg 71%
    04:00 +7°C° 0 mm 4 mps 754 mmHg 72%
    05:00 +7°C° 0 mm 4 mps 754 mmHg 74%
    06:00 +8°C° 0 mm 4 mps 754 mmHg 70%
    07:00 +11°C° 0 mm 4 mps 754 mmHg 66%
    08:00 +12°C° 0 mm 4 mps 754 mmHg 62%
    09:00 +14°C° 0 mm 5 mps 754 mmHg 58%
    10:00 +15°C° 0 mm 5 mps 754 mmHg 54%
    11:00 +17°C° 0 mm 5 mps 753 mmHg 50%
    12:00 +19°C° 0 mm 5 mps 753 mmHg 50%
    13:00 +19°C° 0 mm 5 mps 753 mmHg 49%
    14:00 +20°C° 0 mm 5 mps 753 mmHg 48%
    15:00 +20°C° 0 mm 4 mps 753 mmHg 49%
    16:00 +20°C° 0 mm 4 mps 752 mmHg 50%
    17:00 +20°C° 0 mm 4 mps 752 mmHg 51%
    18:00 +18°C° 0 mm 3 mps 752 mmHg 56%
    19:00 +16°C° 0 mm 3 mps 752 mmHg 61%
    20:00 +13°C° 0 mm 3 mps 752 mmHg 67%
    21:00 +13°C° 0 mm 2 mps 752 mmHg 69%
    22:00 +13°C° 0 mm 2 mps 752 mmHg 71%
    23:00 +12°C° 0 mm 2 mps 752 mmHg 73%
    Show more